Weather Roundup
Issued by NWS

Home | Current Version | Previous Version | Graphics & Text | Print | Product List | Glossary Off
Versions: 1 2 3 4 5 6 7 8 9 10 11 12 13 14 15 16 17 18 19 20 21 22 23 24 25 26 27 28 29 30 31 32 33 34 35 36 37 38 39 40 41 42 43 44 45 46 47 48 49 50

000
NZUS93 KARX 231410
HRRWXR

CURRENT HOURLY OBSERVATIONS ACROSS
MUCH OF THE UPPER MISSISSIPPI VALLEY
NATIONAL WEATHER SERVICE LA CROSSE WI
900 AM CDT SAT JUL 23 2016


...SOUTHEAST MINNESOTA...


CITY           SKY/WX    TMP DP  RH WIND       PRES   REMARKS
ROCHESTER      CLOUDY    78  76  93 SE14G22   29.92F
ROCHESTER/MAYO CLOUDY    78  78 100 E13       29.91F
WINONA         CLOUDY    73  72  94 SE9       29.93F FOG
AUSTIN         CLOUDY    79  75  89 SE10      29.90F
ALBERT LEA     TSTM      75  72  88 SW21G31   29.97R
DODGE CENTER   CLOUDY    79  75  89 SE9       29.90F THUNDER
PRESTON        LGT RAIN  71  68  88 SE9       29.93F
OWATONNA       CLOUDY    81  75  83 SE9G16    29.88S
FARIBAULT      CLOUDY    79  75  89 E6        29.87F
$$

...ELSEWHERE IN MINNESOTA...


CITY           SKY/WX    TMP DP  RH WIND       PRES   REMARKS
MINNEAPOLIS    PTSUNNY   81  74  79 E9        29.87F
INTNL FALLS    CLOUDY    71  61  70 SE12      29.93F
DULUTH         SUNNY     75  60  59 E14       29.99S
RED WING       PTSUNNY   79  72  78 SE6       29.88F
REDWOOD FALLS  CLOUDY    78  75  90 E6        29.84S
MANKATO        CLOUDY    79  73  83 S7        29.86R THUNDER
WORTHINGTON    LGT RAIN  77  75  94 SE13      29.86F
FAIRMONT       CLOUDY    77  73  88 S14G20    29.86F
$$

...SOUTHWEST WISCONSIN...


CITY           SKY/WX    TMP DP  RH WIND       PRES   REMARKS
LA CROSSE      CLOUDY    78  75  90 E6        29.93F THUNDER
PRAIRIE DU CHI RAIN      73  72  95 S6        29.95F
BOSCOBEL       CLOUDY    78  76  93 NW5       29.97R THUNDER FOG
LONE ROCK      CLOUDY    80  77  90 E5        29.97S
PLATTEVILLE    CLOUDY    80  80  99 SE5       29.99R
FORT MC COY    MOSUNNY   77  71  83 CALM      29.95F
CAMP DOUGLAS   PTSUNNY   75  75 100 SE5       29.98R
MAUSTON-NEW LI SUNNY     77  73  87 SE6       29.97S
VIROQUA        CLOUDY    77  77 100 E6        29.97F VSB 1/2
WIS DELLS      CLOUDY    77  76  95 CALM      29.99R FOG
$$

...ELSEWHERE IN WISCONSIN...


CITY           SKY/WX    TMP DP  RH WIND       PRES   REMARKS
MILWAUKEE      MOSUNNY   88  74  63 CALM      29.98S HX  96
MADISON        PTSUNNY   82  78  88 CALM      29.98R HX  91
GREEN BAY      SUNNY     80  67  64 NE9       29.99S
EAU CLAIRE     CLOUDY    81  66  60 E10       29.94F
BLACK RVR FLS  FAIR      77  71  83 CALM      29.96F
MEDFORD        SUNNY     76  67  73 E6        30.00F
WAUSAU         SUNNY     77  65  66 SE6       29.99S
WIS RAPIDS     SUNNY     82  67  60 E6        30.00S
MARSHFIELD     SUNNY     79  67  66 E7        29.99F
RICE LAKE      CLOUDY    76  65  68 E7        29.97F
$$

...NORTHEAST IOWA...


CITY           SKY/WX    TMP DP  RH WIND       PRES   REMARKS
WATERLOO       CLOUDY    78  76  93 S8        29.91F
DUBUQUE        CLOUDY    79  77  94 SE3       29.99R
DECORAH          N/A     70  70 100 VRB3      29.94F
MASON CITY     CLOUDY    77  75  93 S7        29.95R
CHARLES CITY   CLOUDY    79  79 100 E8        29.95R
OELWEIN        CLOUDY    79  77  94 E9        29.95F
$$

...ELSEWHERE IN IOWA...


CITY           SKY/WX    TMP DP  RH WIND       PRES   REMARKS
DES MOINES     CLOUDY    83  76  79 S8        29.90R HX  91
IOWA CITY      MOSUNNY   82  78  88 SE8       29.97R HX  91
FORT DODGE     CLOUDY    75  72  88 SE6       29.89F
MARSHALLTOWN   CLOUDY    80  78  94 SE6       29.92S
CEDAR RAPIDS   SUNNY     82  80  94 E9        29.95R HX  94
$$

...NORTHERN ILLINOIS...


CITY           SKY/WX    TMP DP  RH WIND       PRES   REMARKS
CHICAGO-OHARE  PTSUNNY   84  76  76 VRB3      29.98F HX  93
CHICAGO-MIDWAY PTSUNNY   85  76  74 SW3       29.98S HX  94
MOLINE         SUNNY     84  77  79 SE3       29.97R HX  94
ROCKFORD       MOSUNNY   83  77  82 S6        29.99S HX  92
PEORIA         SUNNY     82  77  84 S8        29.99F HX  90
$$

NOTE: "FAIR" INDICATES FEW OR NO CLOUDS BELOW 12,000 FEET WITH NO
SIGNIFICANT WEATHER AND/OR OBSTRUCTIONS TO VISIBILITY. WIND
SPEEDS ARE IN MILES-PER-HOUR.




USA.gov is the U.S. government's official web portal to all federal, state and local government web resources and services.